Other Public Products
Issued by NWS Charleston, SC

Current Version | Previous Version | Graphics & Text | Print | Product List | Glossary On
Versions: 1 2 3 4 5 6 7 8 9 10 11 12 13 14 15 16 17 18 19 20 21 22 23 24 25 26 27 28 29 30 31 32 33 34 35 36 37 38 39 40 41 42 43 44 45 46 47 48 49 50
799
FPUS82 KCHS 181212
OPUCHS

TEST...KCHS/KSAV Gateway Observations...TEST
National Weather Service Charleston SC
700 AM EST SAT NOV 18 2017

NOTE: "fair" indicates few or no clouds below 12,000 feet with no
significant weather and/or obstructions to visibility.

SCZ050-WAZ558-NCZ071-TXZ119-213-PAZ071-DCZ001-FLZ074-172-MI076-
NYZ176-178-MAZ016-IL014-TNZ027-NJZ106-GAZ044-MD014-181300-

...Gateway Observations for Charleston International...

CITY           SKY/WX    TMP DP  RH WIND       PRES   REMARKS
Chas Airport   PTCLDY    45  44  97 CALM      30.06F
6HR MIN TEMP:  41; 6HR MAX TEMP:  46;

Seattle        CLOUDY    46  39  76 S13       30.29F
6HR MIN TEMP:  45; 6HR MAX TEMP:  47;

Charlotte      CLOUDY    41  39  93 S5        30.05S
6HR MIN TEMP:  40; 6HR MAX TEMP:  44;

Dallas DFW     MOCLDY    69  64  84 SW16      29.69R
6HR MIN TEMP:  69; 6HR MAX TEMP:  75;

Dallas Love    PTCLDY    69  65  86 S6        29.70R
6HR MIN TEMP:  69; 6HR MAX TEMP:  76;

Philladelphia  MOCLDY    38  32  79 S6        29.98F WCI  33
6HR MIN TEMP:  34; 6HR MAX TEMP:  40;

Wash National  MOCLDY    41  34  76 S13       29.94F
6HR MIN TEMP:  37; 6HR MAX TEMP:  41;

Baltimore      MOCLDY    37  31  78 S3        29.93F
6HR MIN TEMP:  30; 6HR MAX TEMP:  37;

Miami          PTCLDY    67  60  78 CALM      30.00R
6HR MIN TEMP:  66; 6HR MAX TEMP:  71;

Detroit        CLOUDY    43  43 100 S7        29.56R FOG
6HR MIN TEMP:  41; 6HR MAX TEMP:  43; 6HR PCP:  0.66;

Newark         MOCLDY    33  23  66 W6        30.00S WCI  28
6HR MIN TEMP:  30; 6HR MAX TEMP:  37;

Laguardia      CLOUDY    39  21  48 S6        29.98F WCI  35
6HR MIN TEMP:  36; 6HR MAX TEMP:  40;

J F K          CLOUDY    32  26  78 CALM      30.00F
6HR MIN TEMP:  28; 6HR MAX TEMP:  38;

Boston Logan   PTCLDY    32  17  54 W6        29.98S WCI  26
6HR MIN TEMP:  30; 6HR MAX TEMP:  33;

Ft. Lauderdale PTCLDY    66  60  81 CALM      29.99R
6HR MIN TEMP:  64; 6HR MAX TEMP:  69;

Chicago O`Hare CLOUDY    44  41  89 N12       29.48F
6HR MIN TEMP:  44; 6HR MAX TEMP:  48; 6HR PCP:  0.03;

Chicago Midway CLOUDY    46  45  96 NE15      29.46F FOG
6HR MIN TEMP:  46; 6HR MAX TEMP:  48; 6HR PCP:  0.01;

Houston Bush   MOCLDY    71  69  93 S7        29.83S
6HR MIN TEMP:  71; 6HR MAX TEMP:  72;

Houston Hobby  PTCLDY    70  69  97 S10       29.83R
6HR MIN TEMP:  69; 6HR MAX TEMP:  70;

Nashville      CLOUDY    62  53  72 S25G32    29.77F
6HR MIN TEMP:  58; 6HR MAX TEMP:  63;

Atlanta        PTCLDY    46  45  96 E5        30.02S
6HR MIN TEMP:  45; 6HR MAX TEMP:  50;


$$

GAZ044-118-TXZ119-213-NCZ071-DCZ001-MDZ014-506-PAZ021-071-NJZ106-
NYZ176-178-MAZ106-OHZ011-021-055-MIZ076-KYZ091-ILZ014-INZ047-
MNZ060-ONZ431-181300-

...Gateway Observations for Savannah International...

CITY           SKY/WX    TMP DP  RH WIND       PRES   REMARKS
Savannah Arpt  MOCLDY    50  49  96 N3        30.06S
6HR MIN TEMP:  49; 6HR MAX TEMP:  54;

Atlanta        PTCLDY    46  45  96 E5        30.02S
6HR MIN TEMP:  45; 6HR MAX TEMP:  50;

Charlotte      CLOUDY    41  39  93 S5        30.05S
6HR MIN TEMP:  40; 6HR MAX TEMP:  44;

Dallas DFW     MOCLDY    69  64  84 SW16      29.69R
6HR MIN TEMP:  69; 6HR MAX TEMP:  75;

Houston Bush   MOCLDY    71  69  93 S7        29.83S
6HR MIN TEMP:  71; 6HR MAX TEMP:  72;

Wash National  MOCLDY    41  34  76 S13       29.94F
6HR MIN TEMP:  37; 6HR MAX TEMP:  41;

Wash Dulles    MOCLDY    40  32  73 S9        29.89F WCI  34
6HR MIN TEMP:  33; 6HR MAX TEMP:  41;

Baltimore      MOCLDY    37  31  78 S3        29.93F
6HR MIN TEMP:  30; 6HR MAX TEMP:  37;

Philadelphia   MOCLDY    38  32  79 S6        29.98F WCI  33
6HR MIN TEMP:  34; 6HR MAX TEMP:  40;

Newark         MOCLDY    33  23  66 W6        30.00S WCI  28
6HR MIN TEMP:  30; 6HR MAX TEMP:  37;

Laguardia      CLOUDY    39  21  48 S6        29.98F WCI  35
6HR MIN TEMP:  36; 6HR MAX TEMP:  40;

J F K          CLOUDY    32  26  78 CALM      30.00F
6HR MIN TEMP:  28; 6HR MAX TEMP:  38;

Boston         PTCLDY    32  17  54 W6        29.98S WCI  26
6HR MIN TEMP:  30; 6HR MAX TEMP:  33;

Pittsburg      LGT RAIN  40  39  97 SE6       29.69R WCI  36
6HR MIN TEMP:  34; 6HR MAX TEMP:  41; 6HR PCP:  0.50;

Akron          LGT RAIN  44  40  85 S13       29.63F
6HR MIN TEMP:  41; 6HR MAX TEMP:  44; 6HR PCP:  0.78;

Cleveland      CLOUDY    45  42  89 S13       29.62F
6HR MIN TEMP:  43; 6HR MAX TEMP:  47; 6HR PCP:  0.59;

Cincinnati     CLOUDY    59  48  67 S20G33    29.58F
6HR MIN TEMP:  50; 6HR MAX TEMP:  59; 6HR PCP:  0.02;

Columbus       CLOUDY    49  46  89 S10       29.60F
Detroit        CLOUDY    43  43 100 S7        29.56R FOG
6HR MIN TEMP:  41; 6HR MAX TEMP:  43; 6HR PCP:  0.66;

Chicago O`Hare CLOUDY    44  41  89 N12       29.48F
6HR MIN TEMP:  44; 6HR MAX TEMP:  48; 6HR PCP:  0.03;

Minneapolis    CLOUDY    34  32  92 N9        29.74R WCI  27
6HR MIN TEMP:  34; 6HR MAX TEMP:  36;

Indianapolis   CLOUDY    61  54  77 SW18G28   29.50F
6HR MIN TEMP:  51; 6HR MAX TEMP:  61; 6HR PCP:  0.01;

Toronto Canada CLOUDY    39  36  87 SE7       29.57F WCI  34

$$




USA.gov is the U.S. government's official web portal to all federal, state and local government web resources and services.